Flag Weather past 2 weeks in Almaty, Kazakhstan

Now
36 °F

Fog.


Feels Like: 33 °F
Forecast: 36 / 49 °F
Wind: 3 mph from Southwest

Location: Almaty Airport

Current Time: Nov 23, 2014 at 8:33:38 PM

Latest Report: Nov 23, 2014 at 8:00 PM


Visibility: 0 mi

Pressure: 29.95 "Hg

Humidity: 87%

Dew point: 32 °F

Location of AlmatyLocation

Historic Weather in Almaty — Graph

°F

Almaty temperature yesterday

Maximum temperature yesterday: 41 °F (at 12:30 PM)
Minimum temperature yesterday: 27 °F (at 11:30 PM)
Average temperature yesterday: 35 °F

Past Weeks' High & Low Weather Summary

 TemperatureHumidityPressure
High52 °F (Nov 17, 3:00 PM)100% (Nov 11, 2:00 PM)30.69 "Hg (Nov 11, 2:00 PM)
Low21 °F (Nov 23, 4:30 AM)29% (Nov 15, 3:00 PM)29.95 "Hg (Nov 23, 7:30 PM)
Average34 °F79%30.36 "Hg
* Reported Nov 8 7:00 PM — Nov 23 7:30 PM, Almaty, Weather by CustomWeather, © 2014

Note: Actual official high and low records may vary slightly from our data, if they occured in-between our weather recording intervals... More about our weather records

Advertising

Almaty weather history for previous 24 hours

 ConditionsComfort  
Time TempWeatherWind HumidityBarometerVisibility
7:30 PM
Nov 23
36 °FFog.6 mph81%29.95 "Hg1 mi
7:00 PM36 °FFog.6 mph87%29.98 "Hg1 mi
6:30 PM36 °FFog.6 mph87%29.98 "Hg1 mi
6:00 PM36 °FFog.3 mph87%29.98 "Hg1 mi
5:30 PM37 °FFog.3 mph81%29.98 "Hg1 mi
5:00 PM37 °FFog.3 mph81%30.01 "Hg1 mi
4:30 PM39 °FFog.3 mph81%30.01 "Hg1 mi
4:00 PM43 °FFog.1 mph87%30.01 "Hg3 mi
3:30 PM43 °FFog.3 mph81%30.01 "Hg2 mi
3:00 PM39 °FFog.3 mph93%30.01 "Hg1 mi
2:00 PM36 °FFog.1 mph100%30.04 "Hg1 mi
1:30 PM34 °FFog.No wind93%30.07 "Hg0 mi
1:00 PM32 °FFog.3 mph93%30.07 "Hg0 mi
12:30 PM32 °FIce fog.3 mph93%30.07 "Hg0 mi
12:00 PM32 °FIce fog.No wind93%30.09 "Hg0 mi
11:30 AM30 °FIce fog.1 mph93%30.12 "Hg0 mi
11:00 AM30 °FIce fog.1 mph86%30.12 "Hg0 mi
10:30 AM28 °FIce fog.1 mph93%30.12 "Hg0 mi
10:00 AM28 °FIce fog.No wind93%30.12 "Hg0 mi
9:30 AM27 °FIce fog.1 mph93%30.12 "Hg0 mi
9:00 AM27 °FIce fog.3 mph93%30.12 "Hg0 mi
8:30 AM27 °FIce fog.1 mph93%30.12 "Hg0 mi
8:00 AM25 °FIce fog.1 mph86%30.12 "Hg0 mi
7:30 AM23 °FIce fog.1 mph86%30.12 "Hg1 mi
7:00 AM21 °FIce fog.1 mph86%30.12 "Hg1 mi
6:30 AM23 °FIce fog.3 mph86%30.12 "Hg0 mi
6:00 AM21 °FIce fog.3 mph86%30.15 "Hg0 mi
5:30 AM21 °FIce fog.1 mph86%30.15 "Hg0 mi
5:00 AM21 °FCold.No wind86%30.15 "HgN/A
4:30 AM21 °FCold.No wind93%30.15 "HgN/A
4:00 AM25 °FCold.1 mph86%30.15 "HgN/A
3:30 AM25 °FCold.No wind93%30.15 "HgN/A
3:00 AM25 °FCold.1 mph93%30.18 "HgN/A
2:30 AM23 °FCold.6 mph93%30.18 "HgN/A
2:00 AM23 °FCold.1 mph93%30.18 "HgN/A
1:30 AM23 °FCold.3 mph93%30.18 "HgN/A
1:00 AM27 °FChilly.3 mph93%30.21 "HgN/A
12:30 AM25 °FCold.6 mph93%30.21 "HgN/A
12:00 AM25 °FCold.No wind93%30.21 "HgN/A
11:30 PM
Nov 22
27 °FChilly.1 mph86%30.21 "HgN/A
11:00 PM30 °FIce fog.1 mph86%30.21 "Hg1 mi
10:30 PM30 °FIce fog.3 mph86%30.24 "Hg1 mi
10:00 PM30 °FIce fog.3 mph93%30.24 "Hg1 mi
9:30 PM30 °FIce fog.3 mph93%30.24 "Hg1 mi
9:00 PM30 °FIce fog.3 mph93%30.24 "Hg0 mi
8:30 PM32 °FIce fog.3 mph87%30.27 "Hg0 mi
8:00 PM32 °FFog.1 mph93%30.27 "Hg0 mi
Weather by CustomWeather, © 2014

See weather overviewHow to use our weather pages